Location: Oberkirch
(48.5323°N, 8.0787°E)
Time: 03:45:15
(UTC+00:00)

EO-79 - Visible Passes

Search period start: 08 March 2026 00:00
Search period end: 18 March 2026 00:00
Orbit: 511 x 522 km, 98.1° (Epoch: 7 March)

Date Brightness Start Highest point End Pass type
(mag) Time Alt. Az. Time Alt. Az. Time Alt. Az.
8 Mar ? 05:08:24 10° NNE 05:11:55 36° E 05:15:23 10° SSE visible
9 Mar ? 04:54:04 10° NE 04:57:13 25° E 05:00:21 10° SSE visible
10 Mar ? 04:39:52 10° NE 04:42:28 18° E 04:45:03 10° SE visible
11 Mar ? 04:26:03 10° ENE 04:27:39 12° E 04:29:14 10° ESE visible
15 Mar ? 04:59:46 10° NE 05:03:01 27° E 05:06:14 10° SSE visible
16 Mar ? 04:45:22 10° NE 04:48:07 19° E 04:50:51 10° SE visible
17 Mar ? 04:31:16 10° ENE 04:33:09 13° E 04:35:01 10° ESE visible
